User: anonymous   Login
Location: Unspecified
(0.0000°N, 0.0000°E)
Time: 21:25:15
(UTC+00:00)
Language:

Nadezhda 4 - Orbit

View from above orbital plane
View from above orbital plane
View from above satellite
View from above satellite

Ground track
Ground track

The orbit data is extracted from the following two-line orbital elements,

1 23179U 94041A   18051.72085402 +.00000030 +00000-0 +15541-4 0  9996
2 23179 082.9470 122.8661 0034039 311.4739 161.0443 13.76542436185685
Epoch (UTC): 20 February 2018 17:18:01
Eccentricity: 0.0034039
inclination: 82.9470°
perigee height: 951 km
apogee height: 1001 km
right ascension of ascending node: 122.8661°
argument of perigee: 311.4739°
revolutions per day: 13.76542436
mean anomaly at epoch: 161.0443°
orbit number at epoch: 18568

The dashed part of the orbit path shows where the satellite is in the earth's shadow,  

DLR